H1 CPF 2 NER 2022 3 13 9 072 01 glonass133 H2 1403201 9133 40001 2022 3 13 0 0 0 2022 3 16 23 45 0 900 1 1 0 0 0 1 H9 10 0 59651 0.00000 0 -21455672.229 443838.254 -13801890.050 10 0 59651 900.00000 0 -22990989.033 254892.217 -11064912.369 10 0 59651 1800.00000 0 -24191725.998 241914.502 -8113198.249 10 0 59651 2700.00000 0 -25019649.584 358609.446 -5004038.935 10 0 59651 3600.00000 0 -25448656.022 552491.039 -1797774.699 10 0 59651 4500.00000 0 -25465817.479 767340.313 1443374.631 10 0 59651 5400.00000 0 -25071895.606 945821.523 4656515.501 10 0 59651 6300.00000 0 -24281301.061 1032146.156 7779299.430 10 0 59651 7200.00000 0 -23121500.849 974671.906 10751130.944 10 0 59651 8100.00000 0 -21631898.343 728326.441 13514341.250 10 0 59651 9000.00000 0 -19862232.838 256753.183 16015304.946 10 0 59651 9900.00000 0 -17870565.535 -465911.916 18205478.196 10 0 59651 10800.00000 0 -15720935.915 -1453708.203 20042338.527 10 0 59651 11700.00000 0 -13480786.092 -2708019.710 21490208.396 10 0 59651 12600.00000 0 -11218260.225 -4217282.097 22520946.835 10 0 59651 13500.00000 0 -8999491.100 -5957240.748 23114496.164 10 0 59651 14400.00000 0 -6885986.360 -7891750.712 23259273.366 10 0 59651 15300.00000 0 -4932222.712 -9974086.532 22952398.576 10 0 59651 16200.00000 0 -3183547.717 -12148708.795 22199756.129 10 0 59651 17100.00000 0 -1674475.968 -14353415.127 21015886.582 10 0 59651 18000.00000 0 -427450.248 -16521787.030 19423711.256 10 0 59651 18900.00000 0 547881.204 -18585831.429 17454093.951 10 0 59651 19800.00000 0 1254841.598 -20478707.290 15145247.530 10 0 59651 20700.00000 0 1709349.765 -22137423.595 12541996.245 10 0 59651 21600.00000 0 1939007.969 -23505395.829 9694907.507 10 0 59651 22500.00000 0 1981692.376 -24534753.587 6659309.593 10 0 59651 23400.00000 0 1883706.303 -25188302.126 3494214.359 10 0 59651 24300.00000 0 1697575.053 -25441054.914 261166.073 10 0 59651 25200.00000 0 1479576.506 -25281272.179 -2976960.776 10 0 59651 26100.00000 0 1287112.996 -24710961.437 -6157190.535 10 0 59651 27000.00000 0 1176036.848 -23745818.539 -9217677.617 10 0 59651 27900.00000 0 1198043.968 -22414611.719 -12098915.143 10 0 59651 28800.00000 0 1398246.809 -20758034.718 -14744896.624 10 0 59651 29700.00000 0 1813030.413 -18827077.369 -17104207.609 10 0 59651 30600.00000 0 2468283.018 -16680982.385 -19131025.767 10 0 59651 31500.00000 0 3378076.617 -14384874.436 -20786009.874 10 0 59651 32400.00000 0 4543853.736 -12007161.026 -22037060.753 10 0 59651 33300.00000 0 5954155.203 -9616813.909 -22859939.856 10 0 59651 34200.00000 0 7584900.835 -7280644.481 -23238734.082 10 0 59651 35100.00000 0 9400211.766 -5060686.330 -23166158.529 10 0 59651 36000.00000 0 11353740.523 -3011793.303 -22643691.962 10 0 59651 36900.00000 0 13390453.686 -1179552.220 -21681542.877 10 0 59651 37800.00000 0 15448793.226 401404.059 -20298447.255 10 0 59651 38700.00000 0 17463126.830 1708614.339 -18521302.038 10 0 59651 39600.00000 0 19366385.368 2732488.197 -16384641.497 10 0 59651 40500.00000 0 21092777.898 3476458.881 -13929966.488 10 0 59651 41400.00000 0 22580471.235 3956585.122 -11204939.336 10 0 59651 42300.00000 0 23774122.361 4200619.876 -8262459.786 10 0 59651 43200.00000 0 24627158.069 4246586.419 -5159639.659 10 0 59651 44100.00000 0 25103706.567 4140922.714 -1956695.916 10 0 59651 45000.00000 0 25180100.224 3936273.080 1284216.377 10 0 59651 45900.00000 0 24845886.501 3689021.009 4500208.611 10 0 59651 46800.00000 0 24104304.642 3456667.795 7628877.297 10 0 59651 47700.00000 0 22972208.016 3295168.104 10609513.066 10 0 59651 48600.00000 0 21479435.180 3256335.355 13384276.551 10 0 59651 49500.00000 0 19667655.727 3385426.827 15899318.412 10 0 59651 50400.00000 0 17588738.878 3719010.736 18105821.867 10 0 59651 51300.00000 0 15302712.616 4283205.722 19960947.792 10 0 59651 52200.00000 0 12875397.998 5092367.512 21428664.421 10 0 59651 53100.00000 0 10375816.794 6148278.792 22480445.830 10 0 59651 54000.00000 0 7873479.797 7439877.362 23095826.088 10 0 59651 54900.00000 0 5435667.946 8943535.205 23262798.500 10 0 59651 55800.00000 0 3124818.756 10623878.075 22978052.265 10 0 59651 56700.00000 0 996126.058 12435112.749 22247041.853 10 0 59651 57600.00000 0 -904547.798 14322807.831 21083887.352 10 0 59651 58500.00000 0 -2542360.880 16226054.851 19511107.197 10 0 59651 59400.00000 0 -3894711.987 18079920.369 17559187.748 10 0 59651 60300.00000 0 -4951942.000 19818087.253 15265997.279 10 0 59651 61200.00000 0 -5717487.449 21375574.930 12676055.091 10 0 59651 62100.00000 0 -6207480.504 22691424.722 9839669.298 10 0 59651 63000.00000 0 -6449812.900 23711237.338 6811959.646 10 0 59651 63900.00000 0 -6482703.916 24389455.522 3651784.342 10 0 59651 64800.00000 0 -6352833.714 24691295.224 420591.907 10 0 59651 65700.00000 0 -6113121.807 24594243.372 -2818779.145 10 0 59651 66600.00000 0 -5820245.636 24089058.361 -6003328.687 10 0 59651 67500.00000 0 -5532005.453 23180230.617 -9071126.729 10 0 59651 68400.00000 0 -5304648.092 21885883.604 -11962523.739 10 0 59651 69300.00000 0 -5190264.014 20237119.043 -14621315.184 10 0 59651 70200.00000 0 -5234368.671 18276833.934 -16995837.093 10 0 59651 71100.00000 0 -5473771.254 16058059.038 -19039971.070 10 0 59651 72000.00000 0 -5934821.491 13641888.665 -20714039.104 10 0 59651 72900.00000 0 -6632108.918 11095088.527 -21985571.093 10 0 59651 73800.00000 0 -7567669.841 8487481.584 -22829930.670 10 0 59651 74700.00000 0 -8730735.589 5889220.922 -23230787.721 10 0 59651 75600.00000 0 -10098032.948 3368062.848 -23180429.213 10 0 59651 76500.00000 0 -11634624.467 986753.104 -22679902.906 10 0 59651 77400.00000 0 -13295253.723 -1199365.863 -21738991.733 10 0 59651 78300.00000 0 -15026139.608 -3144428.205 -20376019.732 10 0 59651 79200.00000 0 -16767144.981 -4813713.588 -18617493.486 10 0 59651 80100.00000 0 -18454229.353 -6184843.611 -16497586.034 10 0 59651 81000.00000 0 -20022083.396 -7248457.414 -14057473.139 10 0 59651 81900.00000 0 -21406835.423 -8008339.786 -11344534.500 10 0 59651 82800.00000 0 -22548716.712 -8480997.906 -8411435.199 10 0 59651 83700.00000 0 -23394574.272 -8694705.806 -5315104.946 10 0 59651 84600.00000 0 -23900125.754 -8688057.978 -2115634.686 10 0 59651 85500.00000 0 -24031861.920 -8508093.916 1124887.980 10 0 59652 0.00000 0 -23768516.756 -8208073.572 4343581.780 10 0 59652 900.00000 0 -23102043.121 -7844997.952 7477991.452 10 0 59652 1800.00000 0 -22038053.130 -7476980.453 10467296.031 10 0 59652 2700.00000 0 -20595703.929 -7160579.710 13253488.076 10 0 59652 3600.00000 0 -18807033.441 -6948207.216 15782496.655 10 0 59652 4500.00000 0 -16715773.263 -6885719.173 18005234.169 10 0 59652 5400.00000 0 -14375687.704 -7010294.449 19878546.673 10 0 59652 6300.00000 0 -11848507.548 -7348688.369 21366049.641 10 0 59652 7200.00000 0 -9201543.986 -7915936.326 22438833.270 10 0 59652 8100.00000 0 -6505081.199 -8714562.398 23076024.011 10 0 59652 9000.00000 0 -3829655.201 -9734327.065 23265191.703 10 0 59652 9900.00000 0 -1243331.323 -10952525.630 23002594.419 10 0 59652 10800.00000 0 1190907.420 -12334826.016 22293256.205 10 0 59652 11700.00000 0 3417553.233 -13836612.050 21150875.803 10 0 59652 12600.00000 0 5390648.845 -15404777.112 19597567.586 10 0 59652 13500.00000 0 7075459.452 -16979894.040 17663439.033 10 0 59652 14400.00000 0 8449672.198 -18498671.156 15386012.144 10 0 59652 15300.00000 0 9504073.569 -19896591.875 12809499.328 10 0 59652 16200.00000 0 10242676.958 -21110627.237 9983947.235 10 0 59652 17100.00000 0 10682295.749 -22081907.275 6964264.716 10 0 59652 18000.00000 0 10851580.523 -22758238.396 3809153.803 10 0 59652 18900.00000 0 10789561.788 -23096360.077 579964.645 10 0 59652 19800.00000 0 10543760.692 -23063845.097 -2660502.901 10 0 59652 20700.00000 0 10167948.491 -22640562.192 -5849226.911 10 0 59652 21600.00000 0 9719650.690 -21819638.795 -8924195.615 10 0 59652 22500.00000 0 9257502.532 -20607882.588 -11825619.395 10 0 59652 23400.00000 0 8838568.777 -19025643.625 -14497098.136 10 0 59652 24300.00000 0 8515742.057 -17106122.483 -16886720.676 10 0 59652 25200.00000 0 8335330.564 -14894153.188 -18948074.694 10 0 59652 26100.00000 0 8334937.521 -12444511.931 -20641147.292 10 0 59652 27000.00000 0 8541722.285 -9819822.284 -21933099.041 10 0 59652 27900.00000 0 8971116.569 -7088144.289 -22798896.976 10 0 59652 28800.00000 0 9626049.876 -4320347.841 -23221794.816 10 0 59652 29700.00000 0 10496716.730 -1587379.388 -23193651.820 10 0 59652 30600.00000 0 11560895.483 1042464.989 -22715084.770 10 0 59652 31500.00000 0 12784805.347 3506147.390 -21795450.670 10 0 59652 32400.00000 0 14124465.800 5748269.517 -20452660.906 10 0 59652 33300.00000 0 15527501.594 7723129.871 -18712830.640 10 0 59652 34200.00000 0 16935317.903 9396372.415 -16609770.287 10 0 59652 35100.00000 0 18285554.699 10746159.522 -14184328.785 10 0 59652 36000.00000 0 19514717.743 11763821.765 -11483601.135 10 0 59652 36900.00000 0 20560875.967 12453958.809 -8560015.362 10 0 59652 37800.00000 0 21366312.231 12833988.642 -5470316.367 10 0 59652 38700.00000 0 21880016.152 12933165.299 -2274466.144 10 0 59652 39600.00000 0 22059914.240 12791107.503 965518.283 10 0 59652 40500.00000 0 21874743.417 12455901.039 4186766.714 10 0 59652 41400.00000 0 21305488.898 11981855.626 7326774.091 10 0 59652 42300.00000 0 20346325.617 11427011.360 10324611.462 10 0 59652 43200.00000 0 19005023.119 10850500.351 13122106.138 10 0 59652 44100.00000 0 17302796.255 10309875.090 15664968.197 10 0 59652 45000.00000 0 15273607.223 9858516.375 17903841.553 10 0 59652 45900.00000 0 12962947.256 9543230.169 19795259.490 10 0 59652 46800.00000 0 10426147.899 9402134.737 21302486.480 10 0 59652 47700.00000 0 7726291.350 9462927.188 22396230.253 10 0 59652 48600.00000 0 4931805.839 9741602.607 23055210.707 10 0 59652 49500.00000 0 2113845.009 10241680.096 23266574.860 10 0 59652 50400.00000 0 -656440.722 10953968.833 23026149.848 10 0 59652 51300.00000 0 -3310628.430 11856884.789 22338528.975 10 0 59652 52200.00000 0 -5785630.308 12917305.722 21216988.785 10 0 59652 53100.00000 0 -8026076.920 14091929.519 19683238.203 10 0 59652 54000.00000 0 -9986377.651 15329079.797 17767003.941 10 0 59652 54900.00000 0 -11632373.075 16570883.710 15505459.396 10 0 59652 55800.00000 0 -12942510.745 17755730.989 12942507.430 10 0 59652 56700.00000 0 -13908495.761 18820911.040 10127930.320 10 0 59652 57600.00000 0 -14535389.407 19705317.061 7116422.983 10 0 59652 58500.00000 0 -14841152.225 20352102.764 3966528.177 10 0 59652 59400.00000 0 -14855651.642 20711179.277 739494.581 10 0 59652 60300.00000 0 -14619176.661 20741445.874 -2501919.640 10 0 59652 61200.00000 0 -14180523.231 20412659.347 -5694673.714 10 0 59652 62100.00000 0 -13594732.354 19706862.368 -8776676.912 10 0 59652 63000.00000 0 -12920577.563 18619309.608 -11688002.162 10 0 59652 63900.00000 0 -12217909.059 17158851.875 -14372056.160 10 0 59652 64800.00000 0 -11544967.694 15347761.440 -16776682.666 10 0 59652 65700.00000 0 -10955783.028 13221005.372 -18855177.238 10 0 59652 66600.00000 0 -10497765.869 10824997.077 -20567193.544 10 0 59652 67500.00000 0 -10209597.112 8215878.003 -21879523.948 10 0 59652 68400.00000 0 -10119501.902 5457401.051 -22766739.663 10 0 59652 69300.00000 0 -10243981.637 2618503.710 -23211678.643 10 0 59652 70200.00000 0 -10587056.869 -229328.407 -23205772.486 10 0 59652 71100.00000 0 -11140052.604 -3014798.570 -22749206.649 10 0 59652 72000.00000 0 -11881934.685 -5669523.341 -21850911.457 10 0 59652 72900.00000 0 -12780182.906 -8130632.132 -20528384.480 10 0 59652 73800.00000 0 -13792164.041 -10343134.999 -18807347.898 10 0 59652 74700.00000 0 -14866947.116 -12261961.317 -16721247.589 10 0 59652 75600.00000 0 -15947484.738 -13853585.857 -14310603.452 10 0 59652 76500.00000 0 -16973068.971 -15097175.861 -11622223.352 10 0 59652 77400.00000 0 -17881958.650 -15985212.504 -8708295.683 10 0 59652 78300.00000 0 -18614067.764 -16523562.160 -5625377.881 10 0 59652 79200.00000 0 -19113601.817 -16730995.703 -2433300.314 10 0 59652 80100.00000 0 -19331531.153 -16638177.108 805993.239 10 0 59652 81000.00000 0 -19227796.939 -16286164.871 4029646.025 10 0 59652 81900.00000 0 -18773156.624 -15724490.101 7175106.396 10 0 59652 82800.00000 0 -17950590.791 -15008892.816 10181339.695 10 0 59652 83700.00000 0 -16756211.618 -14198812.297 12990010.492 10 0 59652 84600.00000 0 -15199634.045 -13354737.516 15546612.243 10 0 59652 85500.00000 0 -13303793.216 -12535529.377 17801522.546 10 0 59653 0.00000 0 -11104215.008 -11795827.661 19710963.668 10 0 59653 900.00000 0 -8647767.789 -11183651.351 21237850.997 10 0 59653 1800.00000 0 -5990949.346 -10738294.227 22352510.808 10 0 59653 2700.00000 0 -3197775.185 -10488602.820 23033257.237 10 0 59653 3600.00000 0 -337357.702 -10451710.218 23266814.867 10 0 59653 4500.00000 0 2518725.401 -10632278.674 23048579.881 10 0 59653 5400.00000 0 5299165.086 -11022283.304 22382714.462 10 0 59653 6300.00000 0 7935644.773 -11601346.458 21282072.230 10 0 59653 7200.00000 0 10365441.539 -12337609.361 19767955.629 10 0 59653 8100.00000 0 12533797.272 -13189105.052 17869709.272 10 0 59653 9000.00000 0 14395961.616 -14105575.528 15624156.326 10 0 59653 9900.00000 0 15918821.856 -15030657.072 13074888.180 10 0 59653 10800.00000 0 17082052.070 -15904341.996 10271420.523 10 0 59653 11700.00000 0 17878733.803 -16665612.997 7268231.823 10 0 59653 12600.00000 0 18315422.621 -17255138.662 4123702.819 10 0 59653 13500.00000 0 18411658.349 -17617915.765 898977.780 10 0 59653 14400.00000 0 18198940.204 -17705745.865 -2343229.865 10 0 59653 15300.00000 0 17719210.917 -17479440.676 -5539863.537 10 0 59653 16200.00000 0 17022914.622 -16910661.837 -8628756.502 10 0 59653 17100.00000 0 16166711.645 -15983316.409 -11549847.039 10 0 59653 18000.00000 0 15210947.746 -14694448.433 -14246351.264 10 0 59653 18900.00000 0 14216985.538 -13054587.972 -16665870.233 10 0 59653 19800.00000 0 13244511.502 -11087542.253 -18761409.489 10 0 59653 20700.00000 0 12348932.777 -8829637.157 -20492291.085 10 0 59653 21600.00000 0 11578973.663 -6328440.334 -21824940.650 10 0 59653 22500.00000 0 10974573.073 -3641018.868 -22733534.683 10 0 59653 23400.00000 0 10565171.068 -831803.881 -23200496.091 10 0 59653 24300.00000 0 10368456.085 2029849.491 -23216829.111 10 0 59653 25200.00000 0 10389624.814 4872305.792 -22782287.774 10 0 59653 26100.00000 0 10621185.202 7624387.309 -21905375.226 10 0 59653 27000.00000 0 11043310.178 10218093.633 -20603174.345 10 0 59653 27900.00000 0 11624726.735 12591190.632 -18901013.115 10 0 59653 28800.00000 0 12324102.584 14689562.227 -16831971.315 10 0 59653 29700.00000 0 13091871.831 16469228.285 -14436237.934 10 0 59653 30600.00000 0 13872422.752 17897945.762 -11760331.509 10 0 59653 31500.00000 0 14606555.517 18956327.422 -8856198.315 10 0 59653 32400.00000 0 15234106.351 19638432.640 -5780205.579 10 0 59653 33300.00000 0 15696627.530 19951806.633 -2592049.074 10 0 59653 34200.00000 0 15940010.170 19916967.521 646403.754 10 0 59653 35100.00000 0 15916939.051 19566363.675 3872312.746 10 0 59653 36000.00000 0 15589075.703 18942845.966 7023082.750 10 0 59653 36900.00000 0 14928877.322 18097719.777 10037576.373 10 0 59653 37800.00000 0 13920974.338 17088459.222 12857298.200 10 0 59653 38700.00000 0 12563047.895 15976180.042 15427527.583 10 0 59653 39600.00000 0 10866169.486 14822977.642 17698378.070 10 0 59653 40500.00000 0 8854587.390 13689242.194 19625763.196 10 0 59653 41400.00000 0 6564967.580 12631063.547 21172250.266 10 0 59653 42300.00000 0 4045119.557 11697834.755 22307785.857 10 0 59653 43200.00000 0 1352258.803 10930154.621 23010279.376 10 0 59653 44100.00000 0 -1449123.216 10358117.063 23266033.613 10 0 59653 45000.00000 0 -4289694.175 10000058.982 23070014.001 10 0 59653 45900.00000 0 -7097921.272 9861819.132 22425951.310 10 0 59653 46800.00000 0 -9802808.262 9936539.218 21346275.424 10 0 59653 47700.00000 0 -12336616.302 10205015.833 19851880.940 10 0 59653 48600.00000 0 -14637456.205 10636588.734 17971728.489 10 0 59653 49500.00000 0 -16651644.786 11190528.457 15742288.658 10 0 59653 50400.00000 0 -18335727.328 11817865.145 13206838.621 10 0 59653 51300.00000 0 -19658082.026 12463581.649 10414624.470 10 0 59653 52200.00000 0 -20600039.425 13069078.305 7419905.061 10 0 59653 53100.00000 0 -21156470.174 13574805.032 4280895.882 10 0 59653 54000.00000 0 -21335816.696 13922948.959 1058633.604 10 0 59653 54900.00000 0 -21159567.862 14060063.126 -2184216.183 10 0 59653 55800.00000 0 -20661199.335 13939524.086 -5384584.079 10 0 59653 56700.00000 0 -19884624.994 13523713.344 -8480230.191 10 0 59653 57600.00000 0 -18882225.730 12785829.388 -11410960.816 10 0 59653 58500.00000 0 -17712539.637 11711252.656 -14119803.931 10 0 59653 59400.00000 0 -16437711.981 10298404.926 -16554120.064 10 0 59653 60300.00000 0 -15120813.211 8559066.041 -18666626.590 10 0 59653 61200.00000 0 -13823138.562 6518133.890 -20416315.426 10 0 59653 62100.00000 0 -12601603.279 4212837.095 -21769246.546 10 0 59653 63000.00000 0 -11506342.916 1691432.736 -22699202.398 10 0 59653 63900.00000 0 -10578619.311 -988556.949 -23188191.078 10 0 59653 64800.00000 0 -9849119.512 -3762495.949 -23226789.280 10 0 59653 65700.00000 0 -9336718.240 -6561084.986 -22814319.004 10 0 59653 66600.00000 0 -9047754.914 -9313009.797 -21958855.219 10 0 59653 67500.00000 0 -8975854.564 -11947677.906 -20677064.721 10 0 59653 68400.00000 0 -9102299.221 -14397930.990 -18993879.557 10 0 59653 69300.00000 0 -9396933.405 -16602620.891 -16942011.361 10 0 59653 70200.00000 0 -9819564.950 -18508943.128 -14561315.922 10 0 59653 71100.00000 0 -10321801.751 -20074431.706 -11898020.008 10 0 59653 72000.00000 0 -10849246.770 -21268532.966 -9003825.237 10 0 59653 72900.00000 0 -11343958.531 -22073693.754 -5934906.074 10 0 59653 73800.00000 0 -11747073.198 -22485919.347 -2750821.174 10 0 59653 74700.00000 0 -12001477.432 -22514778.579 486640.830 10 0 59653 75600.00000 0 -12054419.004 -22182856.769 3714658.777 10 0 59653 76500.00000 0 -11859944.721 -21524680.117 6870596.380 10 0 59653 77400.00000 0 -11381062.411 -20585157.273 9893215.809 10 0 59653 78300.00000 0 -10591535.245 -19417604.051 12723863.913 10 0 59653 79200.00000 0 -9477232.135 -18081434.522 15307608.092 10 0 59653 80100.00000 0 -8036976.507 -16639615.659 17594299.841 10 0 59653 81000.00000 0 -6282856.746 -15155992.372 19539545.619 10 0 59653 81900.00000 0 -4239983.997 -13692595.012 21105566.540 10 0 59653 82800.00000 0 -1945706.138 -12307042.010 22261930.546 10 0 59653 83700.00000 0 551690.776 -11050146.158 22986143.232 10 0 59653 84600.00000 0 3194741.027 -9963824.391 23264086.162 10 0 59653 85500.00000 0 5918945.907 -9079398.326 23090294.239 10 0 59654 0.00000 0 8655220.472 -8416356.413 22468066.778 10 0 59654 900.00000 0 11332541.405 -7981629.073 21409409.356 10 0 59654 1800.00000 0 13880683.184 -7769407.929 19934808.006 10 0 59654 2700.00000 0 16232934.515 -7761515.497 18072838.306 10 0 59654 3600.00000 0 18328678.781 -7928310.759 15859616.878 10 0 59654 4500.00000 0 20115732.723 -8230092.153 13338104.981 10 0 59654 5400.00000 0 21552345.532 -8618938.868 10557277.069 10 0 59654 6300.00000 0 22608774.875 -9040912.584 7571170.011 10 0 59654 7200.00000 0 23268373.720 -9438526.315 4437831.361 10 0 59654 8100.00000 0 23528142.340 -9753375.358 1218187.245 10 0 59654 9000.00000 0 23398722.574 -9928818.308 -2025147.718 10 0 59654 9900.00000 0 22903834.705 -9912593.648 -5229094.502 10 0 59654 10800.00000 0 22079181.238 -9659260.058 -8331343.208 10 0 59654 11700.00000 0 20970864.463 -9132356.076 -11271571.162 10 0 59654 12600.00000 0 19633385.292 -8306186.734 -13992620.998 10 0 59654 13500.00000 0 18127308.463 -7167160.627 -16441615.232 10 0 59654 14400.00000 0 16516693.130 -5714620.052 -18570985.294 10 0 59654 15300.00000 0 14866397.600 -3961128.454 -20339394.878 10 0 59654 16200.00000 0 13239371.838 -1932202.352 -21712539.893 10 0 59654 17100.00000 0 11694051.463 334501.728 -22663809.980 10 0 59654 18000.00000 0 10281962.331 2790511.862 -23174799.321 10 0 59654 18900.00000 0 9045635.505 5378322.193 -23235657.568 10 0 59654 19800.00000 0 8016919.051 8033557.660 -22845274.810 10 0 59654 20700.00000 0 7215756.368 10687432.405 -22011297.536 10 0 59654 21600.00000 0 6649480.966 13269400.354 -20749975.770 10 0 59654 22500.00000 0 6312656.015 15709888.458 -19085844.517 10 0 59654 23400.00000 0 6187464.271 17942999.630 -17051245.789 10 0 59654 24300.00000 0 6244630.891 19909073.712 -14685700.317 10 0 59654 25200.00000 0 6444839.508 21557000.596 -12035140.885 10 0 59654 26100.00000 0 6740581.247 22846189.779 -9151021.907 10 0 59654 27000.00000 0 7078358.258 23748114.875 -6089322.247 10 0 59654 27900.00000 0 7401148.423 24247369.228 -2909460.379 10 0 59654 28800.00000 0 7651026.892 24342189.064 326857.105 10 0 59654 29700.00000 0 7771833.482 24044422.860 3556831.330 10 0 59654 30600.00000 0 7711772.976 23378948.739 6717788.122 10 0 59654 31500.00000 0 7425838.141 22382564.760 9748392.342 10 0 59654 32400.00000 0 6877952.772 21102399.012 12589836.024 10 0 59654 33300.00000 0 6042743.728 19593906.427 15186977.287 10 0 59654 34200.00000 0 4906866.600 17918536.456 17489407.972 10 0 59654 35100.00000 0 3469828.258 16141169.308 19452429.564 10 0 59654 36000.00000 0 1744270.571 14327427.970 21037918.786 10 0 59654 36900.00000 0 -244297.901 12540978.231 22215066.415 10 0 59654 37800.00000 0 -2458312.508 10840929.245 22960975.358 10 0 59654 38700.00000 0 -4849473.167 9279442.808 23261106.685 10 0 59654 39600.00000 0 -7360521.523 7899650.804 23109565.064 10 0 59654 40500.00000 0 -9927402.137 6733967.360 22509218.005 10 0 59654 41400.00000 0 -12481719.167 5802865.814 21471646.288 10 0 59654 42300.00000 0 -14953387.367 5114171.320 20016926.022 10 0 59654 43200.00000 0 -17273368.025 4662898.380 18173245.897 10 0 59654 44100.00000 0 -19376376.476 4431639.852 15976366.220 10 0 59654 45000.00000 0 -21203448.530 4391490.853 13468929.536 10 0 59654 45900.00000 0 -22704258.767 4503468.393 10699635.512 10 0 59654 46800.00000 0 -23839093.590 4720366.544 7722295.660 10 0 59654 47700.00000 0 -24580396.073 4988968.331 4594786.114 10 0 59654 48600.00000 0 -24913817.738 5252520.253 1377918.964 10 0 59654 49500.00000 0 -24838732.754 5453363.906 -1865745.538 10 0 59654 50400.00000 0 -24368192.813 5535612.275 -5073122.024 10 0 59654 51300.00000 0 -23528324.954 5447756.361 -8181833.695 10 0 59654 52200.00000 0 -22357197.921 5145090.558 -11131431.805 10 0 59654 53100.00000 0 -20903205.412 4591853.084 -13864576.304 10 0 59654 54000.00000 0 -19223034.945 3762989.932 -16328154.055 10 0 59654 54900.00000 0 -17379308.327 2645466.823 -18474312.551 10 0 59654 55800.00000 0 -15437993.538 1239073.078 -20261388.833 10 0 59654 56700.00000 0 -13465697.011 -443317.235 -21654715.839 10 0 59654 57600.00000 0 -11526949.944 -2376038.512 -22627290.977 10 0 59654 58500.00000 0 -9681602.139 -4521469.517 -23160294.548 10 0 59654 59400.00000 0 -7982431.868 -6831377.630 -23243448.688 10 0 59654 60300.00000 0 -6473070.840 -9248715.975 -22875210.598 10 0 59654 61200.00000 0 -5186329.959 -11709799.050 -22062796.877 10 0 59654 62100.00000 0 -4142994.545 -14146766.897 -20822038.960 10 0 59654 63000.00000 0 -3351137.973 -16490235.919 -19177072.673 10 0 59654 63900.00000 0 -2805981.102 -18672026.547 -17159867.995 10 0 59654 64800.00000 0 -2490302.002 -20627854.881 -14809608.003 10 0 59654 65700.00000 0 -2375377.530 -22299876.725 -12171928.789 10 0 59654 66600.00000 0 -2422416.196 -23638978.453 -9298034.829 10 0 59654 67500.00000 0 -2584421.109 -24606719.573 -6243706.685 10 0 59654 68400.00000 0 -2808403.800 -25176846.259 -3068220.033 10 0 59654 69300.00000 0 -3037855.035 -25336312.890 166803.059 10 0 59654 70200.00000 0 -3215367.821 -25085769.172 3398588.357 10 0 59654 71100.00000 0 -3285301.453 -24439492.714 6564426.018 10 0 59654 72000.00000 0 -3196373.688 -23424770.112 9602885.689 10 0 59654 72900.00000 0 -2904071.177 -22080752.668 12455006.559 10 0 59654 73800.00000 0 -2372775.904 -20456834.757 15065439.304 10 0 59654 74700.00000 0 -1577517.369 -18610622.809 17383517.777 10 0 59654 75600.00000 0 -505275.940 -16605579.788 19364239.956 10 0 59654 76500.00000 0 844218.434 -14508443.430 20969139.408 10 0 59654 77400.00000 0 2458226.808 -12386525.822 22167030.705 10 0 59654 78300.00000 0 4311293.386 -10305006.599 22934614.738 10 0 59654 79200.00000 0 6366078.485 -8324332.137 23256932.457 10 0 59654 80100.00000 0 8574699.092 -6497828.693 23127658.370 10 0 59654 81000.00000 0 10880522.608 -4869628.425 22549228.044 10 0 59654 81900.00000 0 13220340.516 -3472994.182 21532796.867 10 0 59654 82800.00000 0 15526832.565 -2329112.537 20098030.322 10 0 59654 83700.00000 0 17731219.817 -1446404.963 18272729.214 10 0 59654 84600.00000 0 19765996.629 -820385.498 16092296.278 10 0 59654 85500.00000 0 21567627.834 -434070.482 13599053.816 99